Orbital Elements at Epoch 2459200.5 (2020-Dec-17.0) TDB
Reference: JPL 13 (heliocentric ecliptic J2000)
Element | Value | Uncertainty (1-sigma) | Units |
e | .2304292497222761 | 5.148e-08 | |
a | 2.33712305193116 | 1.0441e-08 | au |
q | 1.798581540566027 | 1.1602e-07 | au |
i | 4.283150216606407 | 5.4359e-06 | deg |
node | 341.5990605795799 | 7.1e-05 | deg |
peri | 33.32653007028905 | 7.2187e-05 | deg |
M | 76.30552612223308 | 1.5131e-05 | deg |
tp | 2458923.885917873208 (2020-Mar-15.38591787) | 5.3659e-05 | TDB |
period | 1305.030901774103 3.57 | 8.7456e-06 2.394e-08 | d yr |
n | .2758555368387093 | 1.8486e-09 | deg/d |
Q | 2.875664563296293 | 1.2847e-08 | au |
|
| | Orbit Determination Parameters
Additional Information
|